Weather in Svyatogorye

Russia / Khabarovsk Krai     47°51′08″N   135°25′31″E
temp.,
°C
wind,
m/s
gust,
m/s
humid.,
%
clouds,
%
prec.,
mm/h
press.,
hPa
HPBL,
m
2 march, tue
tue201:00−23sse12930 0.0 103020
04:00−24sse22930 0.0 103021
07:00−25sse12930 0.0 103020
10:00−20ssw13850 0.0 1029250
13:00−15wnw35710 0.0 1028619
16:00−15wnw35720 0.0 1027761
19:00−20sw12890 0.0 102920
22:00−21sse22900 0.0 103120
3 march, wed
wed301:00−23sse22910 0.0 103021
04:00−23se23900 0.0 103142
07:00−24se35890 0.0 1031101
10:00−18se377917 0.0 1030229
13:00−9sse486860 0.0 1026636
16:00−6s4106880 0.0 1023939
19:00−8s21083100 0.0 1021353
22:00−8sse31094100 0.1 1020312
4 march, thu
thu401:00−7sse31094100 0.1 1018347
04:00−5sse41192100 0.8 1016539
07:00−7sse3994100 0.2 1015282
10:00−3s3792100 0.3 1016320
13:00+1sw25100100 0.3 1014442
16:00+2ssw3894100 0.4 1013741
19:000s41291100 0.0 1011477
22:00−1ssw31097100 0.1 1010452
5 march, fri
fri501:000wsw31099100 2.1 1009548
04:00−6w4118995 3.8 1012421
07:00−13wsw49890 0.0 1017310
10:00−13wsw47843 0.0 1020508
13:00−12w478066 0.0 1021763
16:00−14w6107333 0.0 1023896
19:00−19w412807 0.0 1026612
22:00−21wsw411854 0.0 1029516
6 march, sat
sat601:00−23wsw399183 0.0 1029388
04:00−24sw3109141 0.0 1031379
07:00−24sw310900 0.0 1032367
10:00−20wsw49834 0.0 1033746
13:00−17w59762 0.0 10321054
16:00−15wsw597743 0.1 10311073
19:00−17sw3118675 0.0 1031399
22:00−18sw3108837 0.0 1032278